TimeMDT,TemperatureF,Dew PointF,Humidity,Sea Level PressureIn,VisibilityMPH,Wind Direction,Wind SpeedMPH,Gust SpeedMPH,PrecipitationIn,Events,Conditions,WindDirDegrees,DateUTC
12:54 AM,53.1,48.9,86,29.88,10.0,WSW,8.1,-,N/A,,Clear,250,2013-09-09 06:54:00
1:54 AM,50.0,46.9,89,29.87,10.0,WSW,4.6,-,N/A,,Clear,250,2013-09-09 07:54:00
2:54 AM,51.1,48.9,92,29.86,10.0,SW,6.9,-,N/A,,Scattered Clouds,230,2013-09-09 08:54:00
3:54 AM,48.9,46.0,90,29.86,10.0,North,3.5,-,N/A,,Clear,350,2013-09-09 09:54:00
4:54 AM,48.0,44.1,86,29.91,10.0,Calm,Calm,-,N/A,,Scattered Clouds,0,2013-09-09 10:54:00
5:54 AM,50.0,45.0,83,29.90,10.0,SW,12.7,-,N/A,,Mostly Cloudy,230,2013-09-09 11:54:00
6:54 AM,51.1,45.0,80,29.91,10.0,SW,8.1,-,N/A,,Overcast,230,2013-09-09 12:54:00
7:54 AM,54.0,46.9,77,29.90,10.0,WSW,12.7,-,N/A,,Overcast,240,2013-09-09 13:54:00
8:54 AM,55.0,46.9,74,29.91,10.0,WSW,5.8,-,N/A,,Overcast,250,2013-09-09 14:54:00
9:54 AM,57.9,48.0,70,29.92,10.0,West,10.4,-,N/A,,Overcast,270,2013-09-09 15:54:00
10:54 AM,57.9,48.9,72,29.92,10.0,WNW,8.1,-,N/A,,Overcast,300,2013-09-09 16:54:00
11:54 AM,61.0,48.9,64,29.93,10.0,WNW,11.5,21.9,N/A,,Overcast,290,2013-09-09 17:54:00
12:54 PM,61.0,48.9,64,29.94,10.0,WNW,20.7,31.1,0.00,Rain,Light Rain,300,2013-09-09 18:54:00
1:54 PM,64.0,51.1,63,29.94,10.0,NW,11.5,-,N/A,,Overcast,310,2013-09-09 19:54:00
2:54 PM,68.0,52.0,56,29.91,10.0,WNW,12.7,19.6,N/A,,Partly Cloudy,300,2013-09-09 20:54:00
3:54 PM,66.9,53.1,61,29.93,10.0,WNW,11.5,-,N/A,,Mostly Cloudy,300,2013-09-09 21:54:00
4:54 PM,63.0,52.0,67,29.96,10.0,WNW,11.5,-,N/A,,Partly Cloudy,290,2013-09-09 22:54:00
5:54 PM,64.9,52.0,63,29.95,10.0,West,11.5,-,N/A,,Partly Cloudy,270,2013-09-09 23:54:00
6:54 PM,64.9,51.1,61,29.96,10.0,West,10.4,-,N/A,,Clear,280,2013-09-10 00:54:00
7:54 PM,57.0,51.1,81,29.98,10.0,SSW,6.9,-,N/A,,Clear,210,2013-09-10 01:54:00
8:54 PM,54.0,51.1,90,30.00,10.0,SSW,6.9,-,N/A,,Clear,200,2013-09-10 02:54:00
9:54 PM,54.0,50.0,86,30.01,10.0,Variable,3.5,-,N/A,,Clear,0,2013-09-10 03:54:00
10:54 PM,55.9,50.0,80,30.01,10.0,Calm,Calm,-,N/A,,Clear,0,2013-09-10 04:54:00
11:54 PM,52.0,48.9,89,30.03,10.0,Calm,Calm,-,N/A,,Clear,0,2013-09-10 05:54:00